| time (UTC) | temp F | wind direction | speed MPH | gust MPH | rain 1hr in | rain 24hr in | rain mn in | humidity % | barometer mb |
| 20260905223013 | 86 | 225 | 2.0 | 9.0 | 0.00 | 0.00 | 0.00 | 23 | 1005.8 |
| 20260905222009 | 88 | 8 | 1.0 | 9.0 | 0.00 | 0.00 | 0.00 | 22 | 1005.9 |
| 20260905220956 | 88 | 273 | 2.0 | 9.0 | 0.00 | 0.00 | 0.00 | 22 | 1006.2 |
| 20260905213746 | 87 | 205 | 1.0 | 9.0 | 0.00 | 0.00 | 0.00 | 23 | 1006.6 |
| 20260905211615 | 87 | 273 | 2.0 | 16.0 | 0.00 | 0.00 | 0.00 | 20 | 1007.0 |
| 20260905210610 | 86 | 60 | 4.0 | 17.0 | 0.00 | 0.00 | 0.00 | 20 | 1007.0 |
| 20260905205618 | 87 | 297 | 4.0 | 17.0 | 0.00 | 0.00 | 0.00 | 20 | 1007.3 |
| 20260905204636 | 88 | 316 | 1.0 | 7.0 | 0.00 | 0.00 | 0.00 | 20 | 1007.3 |
| 20260905203623 | 88 | 328 | 1.0 | 7.0 | 0.00 | 0.00 | 0.00 | 21 | 1007.5 |
| 20260905202635 | 88 | 346 | 0.0 | 5.0 | 0.00 | 0.00 | 0.00 | 20 | 1007.5 |
| 20260905201619 | 87 | 271 | 1.0 | 5.0 | 0.00 | 0.00 | 0.00 | 22 | 1007.5 |
| 20260905200625 | 86 | 290 | 0.0 | 8.0 | 0.00 | 0.00 | 0.00 | 23 | 1007.8 |
| 20260905195643 | 87 | 285 | 2.0 | 8.0 | 0.00 | 0.00 | 0.00 | 22 | 1007.8 |
| 20260905193600 | 86 | 134 | 0.0 | 3.0 | 0.00 | 0.00 | 0.00 | 24 | 1008.1 |
| 20260905192559 | 84 | 264 | 0.0 | 5.0 | 0.00 | 0.00 | 0.00 | 25 | 1008.3 |
| 20260905190436 | 84 | 98 | 1.0 | 0.0 | 0.00 | 0.00 | 0.00 | 26 | 1008.6 |
| 20260905185412 | 84 | 235 | 0.0 | 5.0 | 0.00 | 0.00 | 0.00 | 26 | 1008.6 |
| 20260905184412 | 84 | 359 | 0.0 | 1.0 | 0.00 | 0.00 | 0.00 | 27 | 1008.8 |
| 20260905183354 | 85 | 6 | 0.0 | 2.0 | 0.00 | 0.00 | 0.00 | 25 | 1009.0 |
| 20260905182328 | 84 | 8 | 0.0 | 1.0 | 0.00 | 0.00 | 0.00 | 30 | 1009.2 |
| 20260905181321 | 82 | 275 | 0.0 | 0.0 | 0.00 | 0.00 | 0.00 | 31 | 1009.4 |
| 20260905180307 | 81 | 321 | 0.0 | 3.0 | 0.00 | 0.00 | 0.00 | 33 | 1009.7 |
| 20260905175309 | 80 | 13 | 0.0 | 3.0 | 0.00 | 0.00 | 0.00 | 32 | 1009.9 |
| 20260905174250 | 79 | 325 | 0.0 | 0.0 | 0.00 | 0.00 | 0.00 | 33 | 1010.2 |
| 20260905173304 | 78 | 22 | 0.0 | 3.0 | 0.00 | 0.00 | 0.00 | 33 | 1010.4 |
| 20260905172233 | 76 | 304 | 0.0 | 2.0 | 0.00 | 0.00 | 0.00 | 37 | 1010.6 |
| 20260905171232 | 75 | 25 | 0.0 | 3.0 | 0.00 | 0.00 | 0.00 | 38 | 1010.7 |
| 20260905170245 | 74 | 32 | 0.0 | 2.0 | 0.00 | 0.00 | 0.00 | 39 | 1011.0 |
| 20260905164047 | 72 | 131 | 0.0 | 2.0 | 0.00 | 0.00 | 0.00 | 39 | 1011.4 |
| 20260905163040 | 73 | 153 | 0.0 | 0.0 | 0.00 | 0.00 | 0.00 | 42 | 1011.6 |
| 20260905162019 | 70 | 343 | 0.0 | 0.0 | 0.00 | 0.00 | 0.00 | 45 | 1011.7 |
| 20260905161033 | 69 | 346 | 0.0 | 0.0 | 0.00 | 0.00 | 0.00 | 43 | 1011.9 |
| 20260905160035 | 68 | 54 | 0.0 | 0.0 | 0.00 | 0.00 | 0.00 | 44 | 1012.1 |
| 20260905155032 | 67 | 353 | 0.0 | 0.0 | 0.00 | 0.00 | 0.00 | 47 | 1012.0 |
| 20260905154023 | 68 | 48 | 0.0 | 0.0 | 0.00 | 0.00 | 0.00 | 46 | 1012.2 |
| 20260905153031 | 66 | 119 | 0.0 | 0.0 | 0.00 | 0.00 | 0.00 | 47 | 1012.3 |
| 20260905152008 | 65 | 25 | 0.0 | 0.0 | 0.00 | 0.00 | 0.00 | 51 | 1012.4 |
| 20260905150958 | 66 | 4 | 0.0 | 0.0 | 0.00 | 0.00 | 0.00 | 48 | 1012.5 |
| 20260905150012 | 64 | 4 | 0.0 | 1.0 | 0.00 | 0.00 | 0.00 | 51 | 1012.6 |
| 20260905144956 | 64 | 118 | 0.0 | 0.0 | 0.00 | 0.00 | 0.00 | 53 | 1012.9 |
| 20260905143951 | 62 | 318 | 0.0 | 0.0 | 0.00 | 0.00 | 0.00 | 57 | 1013.0 |
| 20260905142948 | 61 | 4 | 0.0 | 2.0 | 0.00 | 0.00 | 0.00 | 57 | 1013.1 |
| 20260905141932 | 59 | 135 | 0.0 | 0.0 | 0.00 | 0.00 | 0.00 | 63 | 1013.4 |
| 20260905140901 | 57 | 135 | 0.0 | 0.0 | 0.00 | 0.00 | 0.00 | 69 | 1013.4 |
| 20260905135834 | 54 | 135 | 0.0 | 0.0 | 0.00 | 0.00 | 0.00 | 75 | 1013.5 |
| 20260905134837 | 50 | 135 | 0.0 | 0.0 | 0.00 | 0.00 | 0.00 | 84 | 1013.5 |
| 20260905133836 | 48 | 136 | 0.0 | 0.0 | 0.00 | 0.00 | 0.00 | 87 | 1013.3 |
| 20260905132852 | 48 | 136 | 0.0 | 0.0 | 0.00 | 0.00 | 0.00 | 87 | 1013.2 |
| 20260905131834 | 47 | 136 | 0.0 | 0.0 | 0.00 | 0.00 | 0.00 | 89 | 1013.0 |
| 20260905130827 | 47 | 136 | 0.0 | 0.0 | 0.00 | 0.00 | 0.00 | 89 | 1013.0 |
| 20260905125807 | 47 | 145 | 0.0 | 0.0 | 0.00 | 0.00 | 0.00 | 89 | 1012.8 |
| 20260905123701 | 48 | 145 | 0.0 | 0.0 | 0.00 | 0.00 | 0.00 | 87 | 1012.4 |
| 20260905121534 | 48 | 154 | 0.0 | 0.0 | 0.00 | 0.00 | 0.00 | 87 | 1012.3 |
| 20260905120559 | 49 | 154 | 0.0 | 0.0 | 0.00 | 0.00 | 0.00 | 85 | 1012.3 |
| 20260905115540 | 49 | 154 | 0.0 | 0.0 | 0.00 | 0.00 | 0.00 | 86 | 1012.3 |
| 20260905113435 | 50 | 128 | 0.0 | 0.0 | 0.00 | 0.00 | 0.00 | 85 | 1012.1 |
| 20260905112405 | 50 | 128 | 0.0 | 0.0 | 0.00 | 0.00 | 0.00 | 84 | 1012.2 |
| 20260905111346 | 50 | 129 | 0.0 | 0.0 | 0.00 | 0.00 | 0.00 | 84 | 1012.1 |
| 20260905110333 | 49 | 128 | 0.0 | 0.0 | 0.00 | 0.00 | 0.00 | 86 | 1012.0 |
| 20260905105312 | 50 | 128 | 0.0 | 0.0 | 0.00 | 0.00 | 0.00 | 87 | 1012.0 |
| 20260905104259 | 50 | 128 | 0.0 | 0.0 | 0.00 | 0.00 | 0.00 | 86 | 1012.0 |
| 20260905103258 | 50 | 129 | 0.0 | 0.0 | 0.00 | 0.00 | 0.00 | 85 | 1011.9 |
| 20260905102241 | 51 | 129 | 0.0 | 0.0 | 0.00 | 0.00 | 0.00 | 83 | 1011.8 |
| 20260905101211 | 51 | 129 | 0.0 | 0.0 | 0.00 | 0.00 | 0.00 | 83 | 1011.7 |
| 20260905100152 | 51 | 120 | 0.0 | 0.0 | 0.00 | 0.00 | 0.00 | 82 | 1011.6 |
| 20260905095132 | 52 | 120 | 0.0 | 0.0 | 0.00 | 0.00 | 0.00 | 82 | 1011.6 |
| 20260905094131 | 51 | 120 | 0.0 | 0.0 | 0.00 | 0.00 | 0.00 | 81 | 1011.5 |
| 20260905093150 | 51 | 120 | 0.0 | 0.0 | 0.00 | 0.00 | 0.00 | 82 | 1011.5 |
| 20260905092206 | 50 | 150 | 0.0 | 0.0 | 0.00 | 0.00 | 0.00 | 83 | 1011.4 |
| 20260905091206 | 50 | 151 | 0.0 | 0.0 | 0.00 | 0.00 | 0.00 | 85 | 1011.3 |
| 20260905090930 | 50 | 150 | 0.0 | 0.0 | 0.00 | 0.00 | 0.00 | 84 | 1011.3 |
| 20260905085858 | 50 | 151 | 0.0 | 0.0 | 0.00 | 0.00 | 0.00 | 84 | 1011.2 |
| 20260905084843 | 51 | 151 | 0.0 | 0.0 | 0.00 | 0.00 | 0.00 | 82 | 1011.1 |
| 20260905083904 | 51 | 151 | 0.0 | 0.0 | 0.00 | 0.00 | 0.00 | 82 | 1011.1 |
| 20260905082854 | 51 | 152 | 0.0 | 0.0 | 0.00 | 0.00 | 0.00 | 84 | 1011.1 |
| 20260905081857 | 51 | 243 | 0.0 | 0.0 | 0.00 | 0.00 | 0.00 | 83 | 1010.9 |
| 20260905074557 | 51 | 243 | 0.0 | 0.0 | 0.00 | 0.00 | 0.00 | 84 | 1010.6 |
| 20260905073622 | 51 | 243 | 0.0 | 0.0 | 0.00 | 0.00 | 0.00 | 82 | 1010.6 |
| 20260905070431 | 53 | 243 | 0.0 | 0.0 | 0.00 | 0.00 | 0.00 | 81 | 1010.4 |
| 20260905065412 | 54 | 243 | 0.0 | 0.0 | 0.00 | 0.00 | 0.00 | 79 | 1010.3 |
| 20260905063204 | 55 | 148 | 0.0 | 0.0 | 0.00 | 0.00 | 0.00 | 75 | 1010.1 |
| 20260905062205 | 55 | 148 | 0.0 | 0.0 | 0.00 | 0.00 | 0.00 | 76 | 1009.9 |
| 20260905061208 | 56 | 148 | 0.0 | 0.0 | 0.00 | 0.00 | 0.00 | 74 | 1009.8 |
| 20260905060205 | 56 | 148 | 0.0 | 0.0 | 0.00 | 0.00 | 0.00 | 72 | 1009.7 |
| 20260905055152 | 57 | 148 | 0.0 | 0.0 | 0.00 | 0.00 | 0.00 | 73 | 1009.6 |
| 20260905053156 | 57 | 148 | 0.0 | 0.0 | 0.00 | 0.00 | 0.00 | 72 | 1009.6 |
| 20260905051043 | 58 | 148 | 0.0 | 0.0 | 0.00 | 0.00 | 0.00 | 69 | 1009.4 |
| 20260905050042 | 59 | 148 | 0.0 | 0.0 | 0.00 | 0.00 | 0.00 | 67 | 1009.4 |
| 20260905045103 | 59 | 148 | 0.0 | 0.0 | 0.00 | 0.00 | 0.00 | 64 | 1009.3 |
| 20260905043006 | 59 | 150 | 0.0 | 0.0 | 0.00 | 0.00 | 0.00 | 67 | 1009.0 |
| 20260905041936 | 60 | 151 | 0.0 | 0.0 | 0.00 | 0.00 | 0.00 | 66 | 1008.9 |
| 20260905040936 | 61 | 150 | 0.0 | 0.0 | 0.00 | 0.00 | 0.00 | 64 | 1008.9 |
| 20260905034829 | 62 | 151 | 0.0 | 0.0 | 0.00 | 0.00 | 0.00 | 58 | 1008.7 |
| 20260905033831 | 63 | 150 | 0.0 | 0.0 | 0.00 | 0.00 | 0.00 | 55 | 1008.5 |
| 20260905032814 | 64 | 151 | 0.0 | 0.0 | 0.00 | 0.00 | 0.00 | 55 | 1008.3 |
| 20260905031815 | 65 | 150 | 0.0 | 0.0 | 0.00 | 0.00 | 0.00 | 51 | 1008.2 |
| 20260905025719 | 68 | 154 | 0.0 | 1.0 | 0.00 | 0.00 | 0.00 | 45 | 1008.0 |
| 20260905024654 | 70 | 153 | 0.0 | 0.0 | 0.00 | 0.00 | 0.00 | 43 | 1007.8 |
| 20260905023650 | 73 | 241 | 0.0 | 0.0 | 0.00 | 0.00 | 0.00 | 37 | 1007.5 |
| 20260905022644 | 74 | 257 | 0.0 | 0.0 | 0.00 | 0.00 | 0.00 | 33 | 1007.2 |
| 20260905021637 | 74 | 290 | 0.0 | 2.0 | 0.00 | 0.00 | 0.00 | 33 | 1006.9 |
| 20260905020659 | 76 | 267 | 0.0 | 2.0 | 0.00 | 0.00 | 0.00 | 32 | 1006.8 |
| 20260905015650 | 76 | 109 | 0.0 | 2.0 | 0.00 | 0.00 | 0.00 | 31 | 1006.6 |
| 20260905014646 | 77 | 215 | 0.0 | 3.0 | 0.00 | 0.00 | 0.00 | 31 | 1006.3 |
| 20260905013646 | 78 | 246 | 0.0 | 0.0 | 0.00 | 0.00 | 0.00 | 32 | 1006.1 |
| 20260905011515 | 81 | 246 | 0.0 | 0.0 | 0.00 | 0.00 | 0.00 | 29 | 1005.9 |
| 20260905010457 | 83 | 277 | 0.0 | 8.0 | 0.00 | 0.00 | 0.00 | 25 | 1005.8 |
| 20260905004336 | 84 | 264 | 0.0 | 5.0 | 0.00 | 0.00 | 0.00 | 26 | 1005.8 |
| 20260905003358 | 85 | 41 | 0.0 | 0.0 | 0.00 | 0.00 | 0.00 | 26 | 1005.8 |
| 20260905002342 | 85 | 133 | 0.0 | 8.0 | 0.00 | 0.00 | 0.00 | 25 | 1005.7 |
| 20260905001313 | 85 | 114 | 1.0 | 12.0 | 0.00 | 0.00 | 0.00 | 24 | 1005.7 |
| 20260905000306 | 85 | 122 | 3.0 | 15.0 | 0.00 | 0.00 | 0.00 | 24 | 1005.7 |
| 20260904235329 | 86 | 240 | 2.0 | 15.0 | 0.00 | 0.00 | 0.00 | 23 | 1005.8 |
| 20260904233241 | 87 | 354 | 0.0 | 4.0 | 0.00 | 0.00 | 0.00 | 23 | 1005.7 |
| 20260904232255 | 87 | 336 | 1.0 | 12.0 | 0.00 | 0.00 | 0.00 | 22 | 1005.7 |
| 20260904231226 | 87 | 325 | 2.0 | 8.0 | 0.00 | 0.00 | 0.00 | 23 | 1005.6 |
| 20260904230237 | 87 | 219 | 2.0 | 8.0 | 0.00 | 0.00 | 0.00 | 22 | 1005.8 |
| 20260904225253 | 87 | 235 | 2.0 | 9.0 | 0.00 | 0.00 | 0.00 | 23 | 1005.8 |
| 20260904224247 | 87 | 271 | 1.0 | 9.0 | 0.00 | 0.00 | 0.00 | 22 | 1006.0 |